Weather History for KFHU - May, 2014

Change the Weather History Date:

Saturday, May 17, 2014

  Actual Average Record
Temperature  
Mean Temperature 78 °F -  
Max Temperature 91 °F 83 °F 96 °F (2003)
Min Temperature 64 °F 61 °F 43 °F (1989)
Cooling Degree Days 12    
Growing Degree Days 28 (Base 50)    
Moisture  
Dew Point 3 °F    
Average Humidity 6    
Maximum Humidity 14    
Minimum Humidity 4    
Precipitation  
Precipitation 0.00 in - - ()
Sea Level Pressure  
Sea Level Pressure 29.87 in    
Wind  
Wind Speed 9 mph (West)    
Max Wind Speed 20 mph    
Max Gust Speed 26 mph    
Visibility 10 miles    
Events      
Averages and records for this station are not official NWS values.
T = Trace of Precipitation, MM = Missing Value Source: NWS Daily Summary

Daily Weather History Graph

Daily Weather History Graph

Search for Another Location

Airport or City:

Trip Planner

Search our weather history database for the weather conditions in past years. The results will help you decide how hot, cold, wet, or windy it might be!

Date:

Astronomy

May. 17, 2014 Rise Set
Actual Time 5:23 AM MST 7:12 PM MST
Civil Twilight 4:56 AM MST 7:39 PM MST
Nautical Twilight 4:24 AM MST 8:11 PM MST
Astronomical Twilight 3:50 AM MST 8:46 PM MST
Moon 10:17 PM MST (5/17) 8:09 AM MST (5/17)
Length of Visible Light 14h 42m
Length of Day
13h 48m
Waning Gibbous, 88% of the Moon is Illuminated
May 17
Waning Gibbous
May 21
Last Quarter
May 28
New
Jun 5
First Quarter
Jun 12
Full

Hourly Weather History & Observations

Time (MST) Temp. Dew Point Humidity Pressure Visibility Wind Dir Wind Speed Gust Speed Precip Events Conditions
12:56 AM 70.0 °F 12.0 °F 11% 29.90 in 10.0 mi WSW 11.5 mph - N/A   Clear
1:56 AM 64.9 °F 12.0 °F 13% 29.90 in 10.0 mi WSW 4.6 mph - N/A   Clear
2:56 AM 64.9 °F 14.0 °F 14% 29.90 in 10.0 mi ENE 4.6 mph - N/A   Clear
3:56 AM 70.0 °F 9.0 °F 9% 29.89 in 10.0 mi South 3.5 mph - N/A   Clear
4:56 AM 68.0 °F 5.0 °F 8% 29.89 in 10.0 mi South 8.1 mph - N/A   Clear
5:56 AM 64.0 °F 7.0 °F 11% 29.91 in 10.0 mi Calm Calm - N/A   Clear
6:56 AM 71.1 °F 10.0 °F 9% 29.91 in 10.0 mi Calm Calm - N/A   Clear
7:56 AM 77.0 °F 7.0 °F 7% 29.92 in 10.0 mi WNW 10.4 mph - N/A   Clear
8:56 AM 82.0 °F 7.0 °F 6% 29.91 in 10.0 mi WNW 8.1 mph - N/A   Clear
9:56 AM 82.9 °F 3.9 °F 5% 29.91 in 10.0 mi NW 8.1 mph - N/A   Clear
10:56 AM 86.0 °F 3.0 °F 4% 29.89 in 10.0 mi NNW 8.1 mph - N/A   Clear
11:56 AM 89.1 °F -2.0 °F 4% 29.88 in 10.0 mi WNW 19.6 mph 25.3 mph N/A   Clear
12:56 PM 90.0 °F -5.1 °F 4% 29.86 in 10.0 mi West 13.8 mph 23.0 mph N/A   Clear
1:56 PM 91.0 °F -7.1 °F 4% 29.87 in 10.0 mi WNW 10.4 mph - N/A   Clear
2:56 PM 91.9 °F -5.1 °F 4% 29.84 in 10.0 mi WNW 15.0 mph 26.5 mph N/A   Clear
3:56 PM 91.0 °F -6.0 °F 4% 29.81 in 10.0 mi West 18.4 mph 23.0 mph N/A   Clear
4:56 PM 89.1 °F -0.9 °F 4% 29.80 in 10.0 mi West 18.4 mph 24.2 mph N/A   Clear
5:56 PM 87.1 °F -2.0 °F 4% 29.81 in 10.0 mi WNW 17.3 mph - N/A   Clear
6:56 PM 84.0 °F -2.0 °F 4% 29.81 in 10.0 mi WSW 11.5 mph - N/A   Clear
7:56 PM 79.0 °F -0.9 °F 4% 29.83 in 10.0 mi WSW 9.2 mph - N/A   Clear
8:56 PM 75.9 °F 1.0 °F 5% 29.83 in 10.0 mi WSW 9.2 mph - N/A   Clear
9:56 PM 75.0 °F 3.0 °F 6% 29.85 in 10.0 mi West 10.4 mph - N/A   Clear
10:56 PM 75.0 °F 3.9 °F 6% 29.84 in 10.0 mi WSW 11.5 mph - N/A   Clear
11:56 PM 73.0 °F 1.9 °F 6% 29.83 in 10.0 mi West 17.3 mph - N/A   Clear